Weather History for Olathe, KS

Change the Weather History Date:

Monday, January 6, 2014

  Actual Average Record
Temperature  
Mean Temperature -2 °F 30 °F  
Max Temperature 4 °F 38 °F 64 °F (1939)
Min Temperature -9 °F 21 °F -9 °F (2014)
Degree Days  
Heating Degree Days 67 35  
Month to date heating degree days 304 210  
Since 1 July heating degree days 2469 2175  
Cooling Degree Days 0 0  
Month to date cooling degree days 0 0  
Year to date cooling degree days 0 0  
Moisture  
Dew Point -15 °F    
Average Humidity 56    
Maximum Humidity 65    
Minimum Humidity 47    
Precipitation  
Precipitation 0.00 in 0.03 in 0.63 in (1955)
Month to date precipitation T 0.18  
Year to date precipitation T 0.18  
Sea Level Pressure  
Sea Level Pressure 30.57 in    
Wind  
Wind Speed 9 mph (WNW)    
Max Wind Speed 20 mph    
Max Gust Speed 26 mph    
Visibility 10 miles    
Events      
T = Trace of Precipitation, MM = Missing Value Source: NWS Daily Summary

Daily Weather History Graph

Daily Weather History Graph

Search for Another Location

Airport:

Trip Planner

Search our weather history database for the weather conditions in past years. The results will help you decide how hot, cold, wet, or windy it might be!

Date:

Astronomy

Jan. 06, 2014 Rise Set
Actual Time 7:37 AM CST 5:12 PM CST
Civil Twilight 7:08 AM CST 5:41 PM CST
Nautical Twilight 6:34 AM CST 6:15 PM CST
Astronomical Twilight 6:02 AM CST 6:47 PM CST
Moon 10:57 AM CST (1/6) 11:42 PM CST (1/6)
Length of Visible Light 10h 33m
Length of Day
9h 34m
Waxing Crescent, 35% of the Moon is Illuminated
Jan 6
Waxing Crescent
Jan 7
First Quarter
Jan 15
Full
Jan 23
Last Quarter
Jan 30
New

Hourly Weather History & Observations

Time (CST) Temp. Windchill Dew Point Humidity Pressure Visibility Wind Dir Wind Speed Gust Speed Precip Events Conditions
12:53 AM -4.0 °F -21.2 °F -17.0 °F 54% 30.57 in 10.0 mi NW 10.4 mph - N/A   Clear
1:53 AM -5.1 °F -23.5 °F -18.0 °F 54% 30.58 in 10.0 mi NNW 11.5 mph 20.7 mph N/A   Clear
2:53 AM -7.1 °F -26.8 °F -18.0 °F 59% 30.59 in 10.0 mi NW 12.7 mph - N/A   Clear
3:53 AM -8.0 °F -22.5 °F -17.0 °F 65% 30.60 in 10.0 mi NW 6.9 mph - N/A   Clear
4:53 AM -8.0 °F -25.0 °F -20.0 °F 56% 30.59 in 10.0 mi NW 9.2 mph - N/A   Clear
5:53 AM -8.0 °F -26.1 °F -20.0 °F 56% 30.58 in 10.0 mi WNW 10.4 mph - N/A   Clear
6:53 AM -8.0 °F -25.0 °F -20.0 °F 56% 30.59 in 10.0 mi WNW 9.2 mph - N/A   Clear
7:53 AM -9.0 °F -23.8 °F -18.9 °F 62% 30.60 in 10.0 mi West 6.9 mph - N/A   Clear
8:53 AM -7.1 °F -23.9 °F -18.0 °F 59% 30.61 in 10.0 mi WNW 9.2 mph - N/A   Clear
9:53 AM -4.0 °F -23.7 °F -18.0 °F 51% 30.63 in 10.0 mi NW 13.8 mph 25.3 mph N/A   Clear
10:53 AM -2.0 °F -21.9 °F -17.0 °F 49% 30.62 in 10.0 mi NNW 15.0 mph - N/A   Clear
11:53 AM -0.9 °F -20.6 °F -16.1 °F 49% 30.60 in 10.0 mi NW 15.0 mph - N/A   Clear
12:53 PM -0.0 °F -17.1 °F -15.0 °F 49% 30.57 in 10.0 mi West 11.5 mph - N/A   Clear
1:53 PM 1.9 °F -15.5 °F -14.1 °F 47% 30.56 in 10.0 mi NW 12.7 mph 19.6 mph N/A   Clear
2:53 PM 1.9 °F -15.5 °F -13.0 °F 50% 30.55 in 10.0 mi West 12.7 mph - N/A   Mostly Cloudy
3:53 PM 3.0 °F -11.5 °F -11.9 °F 50% 30.56 in 10.0 mi WNW 9.2 mph 19.6 mph N/A   Clear
4:53 PM 3.0 °F -11.5 °F -11.9 °F 50% 30.55 in 10.0 mi West 9.2 mph - N/A   Clear
5:53 PM 1.9 °F -5.6 °F -11.0 °F 55% 30.54 in 10.0 mi WSW 3.5 mph - N/A   Clear
6:53 PM -0.9 °F -8.9 °F -9.9 °F 66% 30.54 in 10.0 mi SSW 3.5 mph - N/A   Clear
7:53 PM -0.9 °F -8.9 °F -11.0 °F 62% 30.55 in 10.0 mi SW 3.5 mph - N/A   Clear
8:53 PM -0.9 °F -11.0 °F -11.0 °F 62% 30.53 in 10.0 mi SW 4.6 mph - N/A   Clear
9:53 PM -0.0 °F -11.6 °F -9.9 °F 63% 30.51 in 10.0 mi SW 5.8 mph - N/A   Clear
10:53 PM -0.0 °F -13.0 °F -9.9 °F 63% 30.49 in 10.0 mi SW 6.9 mph - N/A   Clear
11:53 PM -0.0 °F -9.9 °F -9.9 °F 63% 30.47 in 10.0 mi SW 4.6 mph - N/A   Clear